Skip Page Navigation
NASA JPL Caltech
NASA Logo - Jet Propulsion Laboratory + View the NASA Portal
+ Center for Near-Earth Object Studies
JPL Home Earth Solar System Stars & Galaxies Technology
JPL Solar System Dynamics
BODIES ORBITS EPHEMERIDES TOOLS PHYSICAL DATA DISCOVERY FAQ SITE MAP
JPL Small-Body Database Browser
Search: [ help ]  
1304 Arosa (1928 KC)
Classification: Main-belt Asteroid          SPK-ID: 2001304
Ephemeris | Orbit Diagram | Orbital Elements | Mission Design | Physical Parameters | Discovery Circumstances | Close-Approach Data ]

[ show orbit diagram ]
Orbital Elements at Epoch 2459000.5 (2020-May-31.0) TDB
Reference: JPL 36 (heliocentric ecliptic J2000)
 Element Value Uncertainty (1-sigma)   Units 
e .1183488821366423 4.7174e-08  
a 3.198447739399782 1.6001e-08 au
q 2.819915024869347 1.5554e-07 au
i 18.99201262233173 4.9644e-06 deg
node 86.58544964948247 1.428e-05 deg
peri 148.6005177585914 2.4193e-05 deg
M 19.27110680541893 1.8685e-05 deg
tp 2458888.656313624649
(2020-Feb-09.15631362)
0.00010852 TDB
period 2089.331323917761
5.72
1.5678e-05
4.292e-08
d
yr
n .1723039308695924 1.293e-09 deg/d
Q 3.576980453930217 1.7894e-08 au
  Orbit Determination Parameters
   # obs. used (total)      2466  
   data-arc span      40726 days (111.50 yr)  
   first obs. used      1908-12-16  
   last obs. used      2020-06-17  
   planetary ephem.      DE431  
   SB-pert. ephem.      SB431-N16  
   condition code      0  
   norm. resid. RMS      .41833  
   source      ORB  
   producer      Otto Matic  
   solution date      2020-Jun-23 15:29:31  

Additional Information
 Earth MOID = 1.822 au 
 Jupiter MOID = 1.54187 au 
 T_jup = 3.099 
[ show covariance matrix ]

Ephemeris | Orbit Diagram | Orbital Elements | Mission Design | Physical Parameters | Discovery Circumstances | Close-Approach Data ]

Physical Parameter Table
Parameter Symbol Value Units Sigma Reference Notes
absolute magnitude H 9.2   n/a MPO358639  
diameter diameter 43.613 km 0.241 urn:nasa:pds:neowise_diameters_albedos::2.0[mainbelt] (http://adsabs.harvard.edu/abs/2014ApJ...791..121M)  
rotation period rot_per 7.7478 h n/a LCDB (Rev. 2019-August); Warner et al., 2009 Published Reference List:
[Behrend, R. (2002) Observatoire de Geneve web site, http://obswww.unige.ch/~behrend/page_cou.html]
[Behrend, R. (2006) Observatoire de Geneve web site, http://obswww.unige.ch/~behrend/page_cou.html]
[Fauerbach, M.; Bennett, T.; Behrend, R.; Bernasconi, L.; Casulli, S. (2006) Minor Planet Bull. 33, 103.]
[Licchelli, D. (2006) Minor Planet Bull. 33, 105-106.]
geometric albedo albedo 0.337   0.031 urn:nasa:pds:neowise_diameters_albedos::2.0[mainbelt] (http://adsabs.harvard.edu/abs/2014ApJ...791..121M)  
SMASSII spectral type spec_B X   n/a EAR-A-5-DDR-TAXONOMY-V4.0 based on a high-resolution spectrum by Xu et al. (1995) or Bus and Binzel (2002)

1304 Arosa (1928 KC)          Discovered 1928-May-21 by Reinmuth, K. at Heidelberg
Reference: DISCOVERY.DBLast Updated: 2003-08-29

[ show close-approach data ]
Alternate Designations
 1928 KC = 1929 RY = 1934 JL = 1934 LE = 1974 OW = A908 YC 
Ephemeris | Orbit Diagram | Orbital Elements | Mission Design | Physical Parameters | Discovery Circumstances | Close-Approach Data ]
ABOUT SSD CREDITS/AWARDS PRIVACY/COPYRIGHT GLOSSARY LINKS
FirstGov 2020-Jul-02 19:42 UT
(server date/time)  
NASA Home Page
Site Manager:   Ryan S. Park
Webmaster  Alan B. Chamberlin